Temperature
14 14 14 14 14 14 14 14 15 15 15 15 16 16 16 16 16 16 16 16 16 15 15 15 15 15 14 14 14 14 14 14 14 15 15 15 15 15 15 15 15 15 15
13 14 14 14 14 14 14 15 15 15 16 16 16 16 16 16 16 16 16 16 16 15 15 15 15 15 14 14 14 14 14 14 14 14 15 15 15 15 15 15 15 15 15
13 13 14 14 14 14 15 15 15 15 16 16 16 16 16 16 16 16 16 16 16 15 15 15 15 15 14 14 14 14 14 14 14 14 14 14 14 14 14 14 14 14 14
13 13 13 14 14 14 14 15 15 15 15 16 16 16 16 16 16 16 16 16 16 15 15 15 15 15 15 14 14 14 14 14 14 14 14 14 14 14 14 14 14 14 14
13 13 13 13 14 14 14 14 15 15 15 15 15 16 16 16 16 16 16 16 15 15 15 15 15 15 15 14 14 14 14 14 14 14 14 14 14 14 14 14 14 14 13
13 13 13 13 13 13 14 14 14 15 15 15 15 15 15 15 15 15 15 15 15 15 15 15 15 15 15 15 14 14 14 14 14 14 13 13 13 13 13 13 13 13 13
12 12 12 12 13 13 13 13 13 14 14 14 14 14 14 15 15 15 15 15 15 15 15 15 15 14 14 14 14 14 14 14 14 14 13 13 13 13 13 13 13 13 13
12 12 12 12 12 12 13 13 13 13 13 13 13 13 13 13 14 14 15 15 15 14 14 14 14 14 14 14 14 14 14 14 14 14 13 13 13 13 13 13 13 12 13
12 12 12 12 12 12 12 12 12 12 12 12 12 12 12 12 13 13 14 14 14 14 14 14 14 14 14 14 14 14 14 14 14 14 14 13 13 13 13 13 13 12 12
12 11 11 12 12 12 12 12 12 12 12 12 12 12 12 12 12 13 13 13 13 13 13 13 14 14 14 14 14 14 14 14 14 13 13 13 13 13 13 13 12 12 12
12 12 12 12 12 12 12 11 11 11 11 11 11 11 11 11 12 12 13 13 13 13 13 13 13 13 14 14 14 14 14 13 13 13 13 13 13 13 12 12 12 12 12
12 12 12 12 12 11 11 11 11 11 11 11 11 11 11 11 11 12 12 12 12 12 12 12 12 13 13 13 13 13 13 13 13 13 13 12 12 12 12 12 12 12 12
12 12 12 12 11 11 11 11 11 11 11 10 10 10 11 11 11 11 11 11 12 12 12 12 12 12 12 12 12 12 12 12 12 12 12 12 12 12 12 12 12 12 11
13 13 12 12 11 11 11 11 11 11 11 11 10 10 10 11 11 11 11 11 11 11 11 11 11 11 12 12 12 12 12 12 11 11 11 11 11 11 11 11 11 11 11
14 13 12 12 11 11 11 11 11 11 10 10 10 10 10 11 10 10 10 11 11 11 11 11 11 11 11 11 11 11 11 11 11 11 10 10 11 11 10 10 10 10 10
13 13 12 12 11 11 11 11 10 10 10 10 10 10 10 10 10 10 10 10 10 10 10 10 10 10 10 10 10 10 10 10 10 10 10 10 10 10 9 10 9 9 9
13 13 12 12 12 11 11 11 10 10 10 10 10 10 10 10 10 10 10 10 10 10 10 10 9 9 9 9 9 9 9 9 9 9 9 9 9 9 9 9 9 9 9
13 13 12 12 12 11 11 11 11 10 10 10 10 10 10 10 10 9 9 9 9 9 9 9 9 9 9 9 9 8 9 9 9 9 9 9 9 8 8 8 8 8 8
13 13 12 12 12 12 11 11 11 11 10 10 10 10 10 9 9 9 9 9 9 9 8 8 8 8 8 8 8 8 8 8 8 8 8 8 8 7 7 7 7 7 7
13 13 13 12 12 12 12 11 11 11 10 10 10 10 10 9 9 9 9 9 9 8 8 8 8 8 8 8 8 8 8 8 8 8 8 7 7 7 6 6 6 6 6
14 13 13 13 12 12 12 12 11 11 11 10 10 10 10 9 9 9 9 9 9 9 9 9 9 9 9 8 8 8 7 7 7 7 7 6 6 6 6 6 6 6 6
14 14 13 13 12 12 12 12 12 11 11 10 10 10 9 9 9 9 9 9 9 9 9 8 8 9 9 8 8 8 8 8 7 7 7 6 6 6 6 6 6 6 6
14 14 13 13 13 12 12 12 12 11 11 11 10 10 9 9 9 9 9 9 9 9 8 8 8 8 8 8 8 8 8 8 8 7 6 6 6 6 6 6 6 5 5
14 14 13 13 13 12 12 12 12 12 11 11 10 10 10 9 9 9 8 8 8 9 9 9 9 8 9 9 9 9 8 8 8 7 7 6 6 6 6 6 5 5 5
14 14 14 13 13 13 12 12 12 12 11 11 10 10 10 9 9 9 9 9 9 9 9 9 9 9 9 9 9 9 9 8 8 7 7 6 6 6 6 5 5 5 5
14 14 13 13 13 13 12 12 12 12 11 11 11 10 10 9 9 9 9 9 9 9 9 9 9 9 9 9 9 9 9 8 8 7 7 7 6 6 6 5 5 5 5
Wind_Speed
7 6 6 5 3 2 2 1 1 2 3 4 5 4 4 5 5 4 3 3 2 2 3 3 3 3 3 3 3 4 4 4 5 4 3 2 2 2 3 7 8 10 16
7 6 5 5 4 3 1 1 3 3 4 4 4 3 2 2 3 4 4 4 3 3 2 2 3 3 4 3 3 4 4 5 5 5 4 3 4 4 3 4 4 7 10
7 7 6 6 6 5 4 4 4 4 4 4 3 2 2 3 2 2 3 3 4 4 3 3 3 1 1 2 3 4 4 4 4 4 4 2 2 1 2 2 3 3 5
8 8 8 7 6 6 6 5 5 5 5 5 3 2 0 2 2 1 1 1 2 2 2 1 2 3 3 2 0 1 1 2 2 3 3 2 2 1 1 2 3 3 3
7 7 7 6 5 5 6 7 7 7 7 8 7 6 5 4 6 6 6 4 2 1 0 3 6 6 6 4 3 3 3 1 0 1 1 1 1 2 2 2 3 3 3
7 7 7 7 8 8 8 8 8 8 9 9 9 8 8 7 9 10 7 7 5 3 1 2 5 6 5 4 3 2 2 2 1 1 0 1 1 2 2 2 2 1 2
8 8 8 8 8 9 9 8 8 8 8 8 8 7 7 8 10 10 9 6 6 4 2 0 1 4 3 2 3 4 3 3 2 0 1 0 0 1 1 1 2 2 3
8 8 9 9 9 8 8 8 8 7 7 7 7 7 6 8 11 10 9 6 6 5 3 2 2 3 4 4 2 1 1 4 5 2 1 2 2 2 2 1 2 1 1
8 8 8 8 8 8 8 8 7 6 6 6 6 7 7 7 11 10 8 4 4 3 3 5 5 5 6 6 4 4 3 2 3 2 2 2 2 2 2 1 1 0 2
8 8 7 7 7 8 7 6 6 5 6 5 5 6 7 7 10 12 10 4 4 3 3 5 8 7 6 7 5 5 4 3 2 1 0 0 2 2 2 1 1 0 1
6 6 6 7 6 7 6 6 6 5 5 6 5 5 5 7 9 12 11 5 4 3 3 4 4 7 7 7 6 5 3 4 3 3 3 3 2 1 1 1 0 1 0
4 5 5 6 7 7 6 7 6 7 7 7 6 6 6 6 8 10 11 10 8 5 5 4 4 6 7 7 6 6 7 6 4 4 4 4 4 4 4 3 4 3 2
3 3 4 6 6 7 7 8 7 7 6 6 6 6 6 7 9 13 11 11 11 6 5 5 5 7 6 5 6 8 7 5 5 5 5 4 3 4 4 4 5 5 4
3 3 5 6 6 7 6 7 7 7 7 7 7 7 6 8 9 9 8 7 8 6 4 5 6 8 7 7 6 6 5 6 5 4 4 3 4 4 4 4 4 4 3
3 4 5 5 5 6 6 6 6 6 5 5 5 6 6 7 8 11 8 7 6 6 5 5 6 6 7 7 7 7 7 7 6 5 4 4 4 4 4 4 3 3 3
5 5 4 3 4 5 5 5 9 8 8 10 10 7 5 7 9 12 13 13 14 13 9 7 7 7 7 7 7 7 7 7 7 6 6 5 5 4 4 4 4 4 4
5 4 4 4 3 3 4 5 4 3 6 9 9 10 9 9 11 12 11 11 14 12 9 8 7 7 7 7 7 6 6 6 6 6 6 6 6 5 5 5 5 5 4
5 4 3 3 3 3 3 3 3 4 3 2 4 6 7 9 12 14 12 9 9 9 7 7 7 7 7 6 6 6 6 6 6 6 6 6 6 5 5 5 5 5 4
4 3 3 2 1 2 2 3 3 4 3 3 2 1 2 3 7 12 10 7 7 6 6 6 6 6 6 6 6 5 5 5 6 5 5 6 5 5 5 5 5 6 5
4 3 3 1 1 2 2 2 3 3 3 4 4 4 4 4 5 6 6 6 6 5 5 5 5 6 6 6 5 5 5 5 6 5 5 5 5 4 5 5 5 5 5
4 4 1 3 1 2 2 2 3 3 4 4 4 4 5 4 4 5 5 5 5 5 5 4 5 5 5 5 5 5 6 5 5 5 5 5 4 4 4 4 5 5 5
2 5 4 2 1 2 2 1 3 3 4 5 4 3 3 3 3 3 3 4 3 3 2 2 3 3 2 3 4 5 5 5 5 5 5 5 5 4 4 4 4 4 5
2 2 3 3 3 3 2 1 2 3 3 4 5 4 3 2 2 3 3 3 2 2 3 4 3 2 4 5 6 5 5 5 5 5 5 4 4 4 4 4 5 5 5
3 2 2 3 3 3 3 2 2 3 3 3 4 4 4 3 3 2 2 2 2 3 4 4 4 3 5 7 9 10 9 8 9 9 8 5 4 4 4 4 4 5 5
4 2 3 3 4 4 3 2 2 3 3 4 4 4 4 4 3 3 3 2 3 3 3 4 4 5 8 11 10 8 8 9 9 10 10 5 4 4 4 4 4 4 5
5 3 2 2 2 3 3 2 2 3 3 4 4 5 4 4 3 3 3 3 3 3 3 4 4 6 9 9 8 8 9 10 12 12 9 3 3 3 3 3 4 5 5
Wind_Direction
49 55 59 60 61 63 85 116 243 252 246 241 237 227 200 179 179 169 191 184 210 260 242 224 231 232 227 221 220 222 219 206 227 250 233 212 192 190 203 235 228 195 201
34 38 41 39 34 22 7 304 271 262 262 261 249 235 163 157 181 169 184 178 189 219 241 245 246 224 217 221 222 229 226 215 213 240 245 215 210 205 205 230 239 212 205
23 25 29 26 17 5 350 329 306 291 285 272 256 238 176 174 163 168 190 194 189 201 212 219 229 200 216 212 221 232 233 235 217 224 248 227 208 200 216 247 259 265 246
32 32 32 25 10 353 346 334 333 334 328 326 329 341 249 172 152 214 240 202 184 196 204 195 91 74 59 26 299 241 240 242 232 228 242 242 206 183 187 232 257 254 262
40 40 33 24 20 12 8 5 4 2 0 2 4 8 17 26 34 25 3 355 357 339 342 90 93 98 89 67 55 36 27 14 292 236 247 231 211 183 213 212 237 258 263
40 35 28 29 29 25 24 22 10 12 13 12 10 12 15 28 28 26 11 348 340 336 6 112 146 151 139 142 147 132 89 47 32 22 323 244 249 223 220 209 217 236 265
44 43 35 33 31 30 29 23 16 22 22 15 12 12 23 31 21 11 2 338 319 316 327 3 94 103 134 172 196 211 210 196 198 20 10 334 295 181 173 218 222 219 236
40 45 41 35 29 28 30 29 25 25 24 22 17 13 24 29 18 6 350 317 305 311 326 1 62 80 50 35 17 289 198 185 201 203 84 69 69 92 132 173 200 224 257
35 40 42 36 29 28 29 27 25 25 27 26 20 18 24 24 16 7 351 315 318 331 15 36 49 69 47 31 10 355 13 64 149 136 105 118 124 112 100 77 78 347 299
30 31 36 38 35 29 27 28 26 27 26 26 27 26 27 23 18 17 6 344 342 6 53 64 60 62 47 29 13 21 32 13 24 68 95 233 212 213 215 232 244 264 301
32 28 32 31 40 39 23 23 25 22 25 27 26 29 31 30 18 20 17 11 1 23 51 61 55 50 48 36 34 45 28 346 356 36 58 42 40 64 112 277 300 139 359
42 31 45 45 35 33 28 26 23 19 27 25 22 24 20 27 24 14 19 26 23 42 51 56 62 49 46 42 44 32 16 7 22 47 52 43 31 27 23 11 20 29 59
65 37 54 66 61 39 32 30 24 23 26 25 19 21 22 21 17 12 19 28 30 45 61 64 58 45 39 47 47 35 25 28 43 51 49 42 31 24 23 15 14 21 22
108 75 69 65 67 59 41 37 39 27 20 18 18 19 24 27 17 7 8 17 26 40 54 61 53 47 47 46 42 37 43 44 48 51 46 38 33 31 26 19 13 4 14
87 81 80 81 86 82 69 44 43 53 38 20 11 23 23 25 8 9 21 20 16 27 40 52 48 44 44 39 38 36 36 35 38 34 42 40 37 36 24 15 13 13 26
63 62 63 78 95 116 116 91 51 56 53 52 46 49 57 33 15 21 24 28 33 41 53 54 51 47 45 41 39 36 33 29 27 33 38 36 31 28 23 19 22 24 22
64 61 59 46 56 96 130 139 131 80 53 50 50 53 50 34 26 21 23 35 38 44 53 50 47 44 41 40 38 36 32 26 26 32 33 28 24 23 26 26 22 21 18
87 83 77 68 45 56 67 89 122 141 134 100 62 53 48 42 33 27 33 50 46 46 47 47 44 40 37 35 31 28 29 29 28 31 30 26 22 21 23 20 19 14 6
65 67 64 65 47 80 82 77 79 96 104 111 116 64 23 44 45 36 36 49 52 47 47 45 40 36 31 29 24 21 30 34 30 31 30 25 19 16 15 12 12 12 15
90 69 20 326 251 131 119 107 96 97 89 81 68 39 14 38 49 40 39 41 50 48 47 48 42 34 28 22 17 17 28 36 31 29 22 18 12 9 9 10 13 14 11
149 144 213 286 311 74 90 109 112 107 101 93 86 52 28 52 60 56 51 48 45 42 41 46 53 40 26 17 14 15 28 37 32 23 12 4 360 0 7 16 15 16 14
165 165 184 191 116 68 23 83 115 120 120 123 132 125 74 68 70 73 72 70 67 61 40 49 70 62 37 22 16 15 27 32 25 15 358 351 355 4 20 25 15 20 23
283 173 166 157 135 128 246 244 147 130 128 129 136 136 134 109 89 86 96 102 92 75 64 56 66 55 47 36 41 43 38 24 357 343 342 344 0 16 26 23 21 24 29
271 209 190 170 161 174 208 202 168 143 141 137 136 136 132 126 119 106 97 103 105 93 85 82 66 48 64 62 61 57 41 19 1 347 339 345 18 23 22 28 26 19 26
283 237 209 200 177 181 207 200 180 167 157 149 142 139 139 141 142 139 125 114 110 108 98 90 78 56 68 73 64 47 29 20 14 1 345 351 42 35 23 33 39 37 37
275 265 240 209 178 180 192 202 201 176 156 145 136 136 143 146 148 148 143 141 143 133 116 106 98 86 84 78 61 41 27 19 11 4 355 358 63 44 22 40 54 54 52
Height
1497 1497 1497 1498 1499 1501 1502 1504 1506 1508 1509 1511 1512 1514 1516 1517 1518 1519 1520 1520 1521 1521 1522 1523 1523 1523 1523 1524 1525 1525 1526 1527 1527 1528 1529 1530 1531 1532 1533 1535 1537 1537 1538
1501 1501 1502 1502 1503 1504 1505 1506 1508 1509 1510 1511 1512 1514 1515 1516 1517 1518 1519 1519 1520 1520 1520 1520 1521 1521 1521 1521 1521 1522 1522 1523 1524 1524 1525 1526 1527 1528 1529 1530 1531 1532 1533
1504 1504 1505 1505 1506 1506 1507 1507 1509 1510 1510 1511 1512 1513 1514 1515 1517 1518 1518 1519 1519 1519 1519 1519 1519 1519 1519 1519 1519 1519 1519 1520 1520 1520 1520 1522 1522 1523 1524 1526 1526 1528 1529
1507 1507 1507 1507 1507 1508 1508 1509 1509 1510 1510 1511 1511 1512 1513 1514 1515 1516 1517 1518 1518 1519 1519 1519 1518 1518 1517 1517 1517 1517 1517 1517 1517 1517 1517 1518 1518 1519 1520 1521 1522 1523 1524
1510 1509 1509 1509 1509 1509 1509 1509 1509 1509 1509 1509 1510 1510 1511 1512 1513 1514 1516 1516 1517 1517 1518 1518 1517 1517 1516 1516 1516 1516 1516 1516 1516 1515 1515 1515 1516 1516 1516 1517 1517 1518 1519
1514 1513 1512 1511 1511 1510 1509 1509 1509 1509 1508 1508 1509 1509 1510 1510 1511 1512 1513 1514 1515 1516 1516 1516 1516 1516 1516 1516 1516 1515 1515 1515 1515 1515 1514 1514 1514 1514 1514 1514 1514 1514 1515
1518 1516 1515 1513 1512 1511 1510 1510 1509 1509 1508 1508 1508 1508 1508 1508 1509 1509 1510 1511 1512 1513 1514 1515 1515 1515 1515 1516 1516 1516 1515 1515 1515 1515 1514 1514 1514 1513 1513 1512 1512 1512 1513
1522 1520 1518 1516 1515 1514 1512 1511 1510 1509 1509 1508 1508 1507 1507 1506 1506 1507 1507 1509 1510 1511 1512 1513 1513 1514 1515 1515 1515 1515 1515 1515 1515 1515 1514 1514 1513 1513 1513 1512 1512 1511 1511
1526 1524 1522 1520 1518 1516 1515 1514 1512 1511 1510 1509 1508 1507 1507 1506 1505 1505 1505 1506 1507 1509 1510 1511 1511 1512 1513 1514 1514 1515 1515 1515 1515 1515 1514 1514 1513 1513 1512 1512 1511 1511 1510
1529 1527 1525 1523 1521 1519 1518 1516 1515 1513 1512 1510 1510 1509 1507 1506 1505 1504 1504 1505 1506 1507 1508 1509 1510 1511 1512 1513 1513 1514 1514 1515 1514 1514 1514 1513 1513 1513 1512 1512 1511 1511 1510
1532 1530 1528 1526 1524 1522 1520 1519 1517 1515 1514 1513 1512 1511 1509 1508 1507 1506 1505 1505 1506 1506 1507 1508 1509 1510 1511 1512 1512 1513 1513 1514 1514 1514 1513 1513 1513 1513 1512 1512 1512 1511 1511
1535 1533 1531 1529 1527 1525 1523 1521 1519 1518 1517 1516 1514 1513 1512 1511 1509 1508 1507 1506 1506 1507 1507 1508 1509 1510 1510 1511 1512 1513 1513 1513 1513 1513 1513 1513 1513 1513 1512 1512 1512 1511 1510
1537 1535 1534 1532 1529 1527 1525 1523 1522 1520 1519 1518 1517 1516 1514 1513 1511 1510 1509 1508 1508 1508 1508 1509 1509 1510 1511 1512 1512 1513 1513 1513 1513 1513 1513 1513 1513 1513 1512 1512 1511 1511 1510
1539 1537 1536 1534 1532 1530 1527 1526 1524 1523 1521 1520 1519 1518 1517 1515 1514 1513 1512 1511 1510 1510 1510 1510 1510 1511 1512 1513 1513 1513 1513 1513 1513 1513 1513 1513 1513 1513 1512 1512 1511 1510 1510
1541 1539 1538 1536 1535 1533 1531 1529 1528 1526 1525 1524 1522 1521 1519 1518 1517 1516 1514 1513 1512 1512 1512 1512 1512 1513 1513 1514 1514 1514 1514 1514 1514 1514 1514 1514 1513 1513 1512 1512 1511 1510 1510
1542 1541 1540 1538 1537 1535 1534 1533 1531 1530 1529 1527 1526 1524 1523 1521 1520 1519 1517 1516 1515 1515 1514 1514 1514 1515 1515 1515 1515 1516 1516 1515 1515 1515 1515 1514 1514 1513 1512 1512 1511 1510 1509
1542 1542 1541 1540 1539 1538 1537 1535 1534 1534 1532 1531 1529 1528 1526 1524 1523 1522 1520 1519 1518 1518 1517 1517 1517 1517 1517 1517 1517 1517 1517 1517 1516 1516 1515 1514 1514 1513 1513 1512 1511 1510 1509
1543 1542 1542 1541 1541 1540 1539 1538 1537 1536 1535 1534 1532 1531 1529 1527 1526 1524 1523 1522 1521 1520 1520 1520 1520 1520 1519 1519 1519 1518 1518 1517 1517 1516 1515 1514 1514 1513 1512 1512 1511 1510 1509
1544 1543 1542 1542 1542 1541 1541 1540 1539 1538 1537 1536 1534 1533 1532 1530 1528 1527 1525 1524 1523 1522 1522 1522 1521 1521 1521 1520 1520 1519 1519 1518 1517 1516 1515 1514 1514 1513 1512 1512 1511 1510 1509
1544 1543 1543 1543 1543 1543 1542 1541 1541 1540 1539 1538 1536 1535 1533 1532 1530 1529 1527 1526 1525 1524 1524 1523 1523 1522 1521 1521 1520 1520 1519 1518 1517 1516 1515 1515 1514 1513 1513 1512 1511 1510 1509
1544 1543 1543 1543 1543 1543 1543 1543 1542 1541 1540 1539 1538 1537 1535 1533 1531 1530 1529 1528 1527 1526 1525 1524 1523 1523 1522 1521 1520 1520 1519 1518 1517 1516 1516 1515 1515 1514 1513 1512 1511 1510 1509
1544 1543 1543 1544 1543 1543 1543 1543 1543 1542 1541 1540 1539 1537 1536 1534 1533 1531 1530 1529 1528 1527 1526 1525 1524 1523 1522 1522 1521 1520 1519 1518 1517 1516 1516 1516 1515 1515 1514 1513 1512 1511 1509
1544 1544 1544 1543 1543 1543 1543 1543 1543 1542 1541 1540 1539 1538 1537 1535 1534 1532 1531 1530 1529 1528 1527 1526 1525 1524 1523 1522 1521 1520 1519 1518 1517 1517 1516 1516 1516 1515 1514 1513 1512 1511 1510
1543 1543 1543 1543 1542 1542 1542 1542 1542 1542 1541 1541 1540 1538 1537 1536 1534 1533 1532 1531 1530 1529 1528 1527 1526 1525 1524 1523 1522 1521 1520 1519 1518 1517 1517 1516 1516 1516 1515 1514 1513 1512 1511
1541 1541 1541 1541 1541 1541 1541 1541 1541 1541 1541 1540 1539 1538 1537 1536 1535 1533 1532 1531 1531 1530 1529 1528 1527 1526 1525 1524 1523 1522 1521 1520 1519 1518 1518 1517 1516 1516 1515 1514 1514 1513 1512
1539 1539 1539 1540 1540 1540 1540 1540 1540 1540 1540 1539 1538 1537 1536 1535 1534 1533 1532 1532 1531 1530 1529 1529 1528 1527 1526 1525 1524 1523 1522 1521 1520 1519 1518 1518 1517 1517 1516 1515 1515 1514 1513